CZ-6 R/B, 44784

Orbit data source: Space-Track

CZ-6 R/B, 44784 is space debris in LEO originally from a launch on Wed, 13 Nov 2019 UTC launched from the Taiyaun Space Center, China (TSC). Debris objects in space refer to the collection of defunct objects orbiting the Earth. Examples of debris include non-operational satellites, rocket bodies, and fragments generated from explosions, collisions, or faulty payload assembly.

Loading next visibility...
Identifier
44784, 2019-076F
Orbit
LEO
Country
Flag of CNCN / PRC
Related business
Manufacturer
SAST
Mission
Spacecraft
Bus & Motor
CZ-6 STAGE 3, YF-85 X 4
Mass
~1,000 kg wet, ~1,000 kg dry
Launch date (UTC)
2019-11-13 (6 years ago)
Launch vehicle
Unknown
Launch site
Taiyaun Space Center, China (TSC)
Object type
Payload
Rocket body
Debris
Shape & HBR
Cyl, 2.0 m
Radar Cross Section
9.057 m², Large (>1 m²)

Expand to show TLE details & history
Last TLE update: 15 hours ago

TLE from 15 hours ago
0 CZ-6 R/B
1 44784U 19076F   25350.32001391  .00000283  00000-0  19544-3 0  9993
2 44784  45.0084  10.8265 0087769   6.2108 353.9801 14.18015871315730
Epoch: 2025-12-16T07:40Z
TLE epoch observation values (Epoch: 2025-12-16T07:40:49.201Z)
Latitude
-0.00004°
Longitude
170.41554°
Altitude
769.149 km
Speed
7.504 km/s
True Right ascension
00h 43m 18s
True Declination
0° 00' 00"
Sunlit
Object was in daylight at epoch
Visualization orbit readout
Latitude
Unknown
Longitude
Unknown
Altitude
Unknown
Speed
Unknown
Apparent Right ascension
Unknown
Apparent Declination
Unknown
Sunlit
N/A
Visualization observer readout
Local Sidereal Time
21:07:05
Azimuth
Unknown
Elevation
Unknown
Doppler factor
Unknown
Orbital elements
Apogee altitude
896.898 km
Perigee altitude
770.305 km
Semi-major axis
7,211.738 km
Eccentricity
0.00878
Inclination
45.0084°
RAAN
10.8265°
Arg. of periapsis
6.2108°
True anomaly
353.87346°
Mean anomaly
353.9801°
Eccentric anomaly
353.9269°
Mean motion
3.54391 °/min
Orbital period
101.58 mins
BSTAR
0.00019544
Loading maneuver chart data...
Computing Atmospheric mass density...
Loading historical data...
Loading historical data...
Loading historical data...
Loading historical data...
Loading historical data...
Loading historical data...
Loading historical data...
Other satellites on launch #76 in the year 2019 (2019-11-13 UTC)

Documentation

Showing up to 5 results
|